Regional Weather Roundup
Issued by NWS

Home | Current Version | Previous Version | Text Only | Print | Product List | Glossary Off
Versions: 1 2 3 4 5 6 7 8 9 10 11 12 13 14 15 16 17 18 19 20 21 22 23 24 25 26 27 28 29 30 31 32 33 34 35 36 37 38 39 40 41 42 43 44 45 46 47 48 49 50

000
ASUS45 KBOU 011910
RWRCO

WEATHER ROUNDUP FOR COLORADO
NATIONAL WEATHER SERVICE DENVER/BOULDER CO
100 PM MDT SAT AUG 01 2015

NOTE: "FAIR" INDICATES FEW OR NO CLOUDS BELOW 12000 FEET WITH NO
SIGNIFICANT WEATHER AND/OR OBSTRUCTIONS TO VISIBILITY.

COZ001>005-013-030-031-012000-
...NORTHWEST COLORADO...

CITY           SKY/WX    TMP DP  RH WIND       PRES   REMARKS
CRAIG          SUNNY     88  35  15 N8        30.23F
HAYDEN         SUNNY     82  34  17 NW5       30.26F
MEEKER         SUNNY     85  43  22 VRB5      30.24F
MOUNT WERNER   NOT AVBL
STEAMBOAT SPGS SUNNY     79  36  21 SW6       30.29F
WALDEN         SUNNY     77  27  15 SW6       30.37F
$$

COZ006>008-011-012000-
...WEST CENTRAL VALLEYS...

CITY           SKY/WX    TMP DP  RH WIND       PRES   REMARKS
GRAND JUNCTION MOSUNNY   88  49  25 W7        30.13F
MONTROSE       PTSUNNY   83  46  27 NW3       30.23F
EAGLE          MOSUNNY   84  39  20 SW10      30.26F
RIFLE          SUNNY     88  45  22 VRB5      30.17F
DELTA          PTSUNNY   88  49  25 S5        30.18F
NUCLA          PTSUNNY   81  50  34 W9        30.30F
$$

COZ017>023-064>068-012000-
...SOUTHWEST COLORADO...

CITY           SKY/WX    TMP DP  RH WIND       PRES   REMARKS
DURANGO        CLOUDY    76  54  46 NW13      30.32F
CORTEZ         SUNNY     73  62  68 NE7       30.29F
PAGOSA SPRINGS CLOUDY    71  48  43 SW5       30.40S THUNDER
TELLURIDE      CLOUDY    66  47  51 CALM      30.51S
WOLF CREEK PAS NOT AVBL
$$

COZ009-010-012-014-032>034-037-058>063-012000-
...CENTRAL COLORADO...

CITY           SKY/WX    TMP DP  RH WIND       PRES   REMARKS
ASPEN          MOSUNNY   80  41  24 N7        30.34F
BUENA VISTA    PTSUNNY   77  31  18 CALM      30.34F
COPPER MTN     PTSUNNY   64  25  22 W6        30.71S
BERTHOUD PASS  FAIR      55  45  67 MISG      30.76S
COTTONWOOD PAS CLOUDY    73  32  21 CALM      30.51F
GUNNISON       MOSUNNY   73  46  38 SW9       30.37F
KREMMLING      SUNNY     82  30  15 NE6       30.32F
LEADVILLE      MOSUNNY   70  30  22 VRB7G16   30.50F
SALIDA         MOSUNNY   84  43  23 SW13      30.39F
SUNLIGHT       SUNNY     68  45  42 NW3       30.63F
WILKERSON PASS CLOUDY    61  36  39 S5        30.67S
$$

COZ069>075-012000-
...SAN LUIS VALLEY/SANGRE DE CRISTO MOUNTAINS...

CITY           SKY/WX    TMP DP  RH WIND       PRES   REMARKS
ALAMOSA        PTSUNNY   77  49  37 VRB3      30.35F
LA VETA PASS   MOSUNNY   66  43  42 MISG      30.54F
SAGUACHE       MOSUNNY   72  48  43 S6        30.39F
$$

COZ035-036-038>040-012000-
...NORTHERN COLORADO FRONT RANGE...

CITY           SKY/WX    TMP DP  RH WIND       PRES   REMARKS
DENVER INTL AP MOSUNNY   90  45  21 E9        30.13F
DMNS CITY PARK   N/A     90  48  23 SE6G12    30.12F
AURORA         MOSUNNY   89  47  23 N6        30.16F
FRONT RANGE AP MOSUNNY   88  46  23 E6        30.16F
ERIE MUNI ARPT SUNNY     90  47  22 SE5       30.11F
BOULDER MUN AP SUNNY     88  50  27 CALM      30.13F
CENTENNIAL     MOSUNNY   88  44  21 VRB7      30.17F
BROOMFIELD     NOT AVBL
FORT COLLINS   MOSUNNY   88  54  31 SE8       30.10F
LONGMONT       MOSUNNY   89  51  27 CALM      30.13F
$$

COZ041-046-047-076>085-087-088-012000-
...PIKES PEAK/PALMER DIVIDE AND SOUTHERN FOOTHILLS...

CITY           SKY/WX    TMP DP  RH WIND       PRES   REMARKS
COLO. SPRINGS  MOSUNNY   84  51  31 NE5       30.22F
A. F. ACADEMY  MOSUNNY   80  53  39 S8        30.23F
ELLICOTT       SUNNY    N/A N/A N/A VRB7      30.21F
FALCON         SUNNY     81  52  36 S5        30.29F
FORT CARSON    SUNNY     84  52  33 CALM      30.18F
LIMON          SUNNY     84  57  39 SE10G20   30.17F
MONUMENT HILL  NOT AVBL
TRINIDAD       MOSUNNY   89  49  25 E8        30.18F
$$

COZ042>045-048>051-090-091-012000-
...NORTHEAST COLORADO...

CITY           SKY/WX    TMP DP  RH WIND       PRES   REMARKS
GREELEY ARPT   SUNNY     90  52  27 SE6       30.10F
AKRON          SUNNY     90  55  30 S20G29    30.11F
BURLINGTON     SUNNY     86  56  35 S18G24    30.12F
WRAY           SUNNY     93  50  23 S15G22    30.07F
STERLING       SUNNY     93  54  26 S7G16     30.04F
HOLYOKE        NOT AVBL
FORT MORGAN    SUNNY     91  49  23 S9G17     30.09F
$$

COZ086-089-092>099-012000-
...SOUTHEAST COLORADO...

CITY           SKY/WX    TMP DP  RH WIND       PRES   REMARKS
PUEBLO         SUNNY     90  52  27 S7        30.10F
LA JUNTA       SUNNY     89  58  34 S5        30.08F
LAMAR          PTSUNNY   88  61  40 SE10G17   30.04F
SPRINGFIELD      N/A     85  63  47 VRB6G18   30.10F
$$



USA.gov is the U.S. government's official web portal to all federal, state and local government web resources and services.